Location: Unnamed
(23.5608°S, 46.6833°W)
Time: 01:24:43
(UTC-03:00)

COSMOS 2251 DEB - Pass Details

Date: 12 December 2023
Orbit: 679 x 693 km, 74.0° (Epoch: 24 February)

Event Time Altitude Azimuth Distance (km) Brightness Sun altitude
Rises 19:03:35 0° 185° (S) 3,070 ? -4.1°
Reaches altitude 10° 19:06:01 10° 178° (S) 2,151 ? -4.6°
Maximum altitude 19:10:37 42° 107° (ESE) 982 ? -5.6°
Drops below altitude 10° 19:15:11 10° 36° (NE) 2,144 ? -6.5°
Enters shadow 19:16:35 - 31° (NNE) 2,667 ? -6.8°
